Location: Albany
(35.0170°S, 117.8920°E)
Time: 09:49:19
(UTC+08:00)

S-56A Canister/Altair - Pass Details

Date: 29 January 2021
Orbit: 632 x 2501 km, 38.9° (Epoch: 25 February)

Event Time Altitude Azimuth Distance (km) Brightness Sun altitude
Rises 15:06:47 0° 265° (W) 5,713 12.6 49.6°
Reaches altitude 10° 15:10:17 10° 263° (W) 4,873 12.5 48.9°
Maximum altitude 15:25:01 77° 176° (S) 2,561 10.9 46.0°
Drops below altitude 10° 15:39:37 10° 89° (E) 4,835 11.3 43.0°
Sets 15:43:04 0° 87° (E) 5,668 11.5 42.3°
